Regional Weather Roundup
Issued by NWS

Home | Current Version | Previous Version | Graphics & Text | Print | Product List | Glossary On
Versions: 1 2 3 4 5 6 7 8 9 10 11 12 13 14 15 16 17 18 19 20 21 22 23 24 25 26 27 28 29 30 31 32 33 34 35 36 37 38 39 40 41 42 43 44 45 46 47 48 49 50
000
ASUS43 KMKX 242200
RWRWI

WISCONSIN REGIONAL WEATHER ROUNDUP
NATIONAL WEATHER SERVICE MILWAUKEE/SULLIVAN WI
500 PM CDT SUN JUL 24 2016

NOTE: "FAIR" INDICATES FEW OR NO CLOUDS BELOW 12,000 FEET WITH NO
SIGNIFICANT WEATHER AND/OR OBSTRUCTIONS TO VISIBILITY.

WIZ001-002-006>008-014>016-023>028-242300-
NORTHWEST WISCONSIN

CITY           SKY/WX    TMP DP  RH WIND       PRES   REMARKS
SUPERIOR ARPT  MOSUNNY   81  62  51 W16G22    29.83R HX  82
ASHLAND        SUNNY     84  62  47 W14G22    29.82R HX  85
HAYWARD        SUNNY     81  60  48 W8        29.87R HX  82
SIREN          SUNNY     81  59  47 NW16      29.90R HX  81
CUMBERLAND     SUNNY     79  59  50 W17       29.90R HX  80
RICE LAKE      SUNNY     80  61  53 W8G17     29.91R HX  81
CHETEK         SUNNY     82  64  54 W10       29.90R HX  84
LADYSMITH      MOSUNNY   80  64  57 W13       29.88R HX  82
EAU CLAIRE     SUNNY     84  63  49 W14       29.89R HX  85
MENOMONIE      SUNNY     83  62  48 NW15      29.89R HX  84
NEW RICHMOND   MOSUNNY   82  61  48 W15       29.93R HX  83
OSCEOLA        MOSUNNY   83  63  49 W12       29.95R HX  84
$$

WIZ003>005-009-010-017-018-242300-
NORTH CENTRAL WISCONSIN

CITY           SKY/WX    TMP DP  RH WIND       PRES   REMARKS
MANITOWISH WTR PTSUNNY   79  64  60 W8        29.83S HX  81
ARBOR VITAE    MOSUNNY   82  64  53 W7G16     29.84S HX  84
WOODRUFF       MOSUNNY   82  64  53 W7G16     29.84S HX  84
RHINELANDER    MOSUNNY   82  64  54 W8        29.84F HX  83
EAGLE RIVER    SUNNY     81  60  47 W9G16     29.82F HX  82
LAND O LAKES   MOSUNNY   82  60  46 W8        29.83F HX  82
PHILLIPS       PTSUNNY   80  65  59 W10       29.84S HX  82
TOMAHAWK       MOSUNNY   82  63  53 W7        29.84F HX  83
MEDFORD        PTSUNNY   80  65  59 W13G18    29.86S HX  82
MERRILL        MOSUNNY   83  66  55 W9        29.84F HX  86
$$

WIZ029-030-035-036-043>047-242300-
CENTRAL WISCONSIN

CITY           SKY/WX    TMP DP  RH WIND       PRES   REMARKS
WAUSAU         MOSUNNY   84  63  49 W16G22    29.83S HX  85
MOSINEE        NOT AVBL
MARSHFIELD     SUNNY     85  66  53 W15G21    29.86S HX  87
STEVENS POINT  SUNNY     83  65  54 W12       29.85R HX  85
WAUPACA        SUNNY     89  68  49 W12       29.81F HX  93
WAUTOMA        SUNNY     87  71  58 W12       29.83R HX  93
WISC RAPIDS    SUNNY     87  63  44 NW9       29.86S HX  88
CAMP DOUGLAS   NOT AVBL
$$

WIZ011>013-019>022-031-037>040-048>050-242300-
NORTHEAST WISCONSIN

CITY           SKY/WX    TMP DP  RH WIND       PRES   REMARKS
ANTIGO         SUNNY     83  66  57 W14       29.84S HX  85
SHAWANO        SUNNY     87  72  61 W9G16     29.79F HX  93
OCONTO         PTSUNNY   85  81  86 W13       29.77S HX 101
STURGEON BAY   CLOUDY    80  75  84 S7        29.79S HX  85
GREEN BAY      SUNNY     86  76  71 W13       29.79S HX  96
MANITOWOC      NOT AVBL
APPLETON       MOSUNNY   86  72  62 W13       29.80S HX  92
CLINTONVILLE   MOSUNNY   86  68  54 W12G18    29.80S HX  89
OSHKOSH        MOSUNNY   89  73  59 W12       29.80S HX  97
$$

WIZ032>034-041-042-053>061-242300-
SOUTHWEST WISCONSIN

CITY           SKY/WX    TMP DP  RH WIND       PRES   REMARKS
LA CROSSE      SUNNY     88  65  46 W15       29.88R HX  90
SPARTA         SUNNY     86  67  53 W8        29.87S HX  88
VIROQUA        SUNNY     83  65  55 W9        29.91R HX  85
BOSCOBEL       MOSUNNY   87  68  52 W7        29.88R HX  90
PRAIRIE DU CHI MOSUNNY   85  67  54 W9        29.88S HX  88
PLATTEVILLE    MOSUNNY   86  79  79 W13       29.89R HX 101
$$

WIZ056-057-062-063-064-067-068-242300-
SOUTH CENTRAL WISCONSIN

CITY           SKY/WX    TMP DP  RH WIND       PRES   REMARKS
REEDSBURG      SUNNY     87  69  53 W12       29.85R HX  91
BARABOO/DELLS  SUNNY     87  70  57 W9        29.85R HX  92
LONE ROCK      NOT AVBL
MINERAL POINT  CLOUDY    90  77  66 W12       29.88S HX 102
MADISON        PTSUNNY   88  76  67 W7        29.83S HX  99
MIDDLETON      MOSUNNY   89  76  65 W7        29.85S HX 101
WATERTOWN      MOSUNNY   89  80  73 W9G16     29.82S HX 106
MONROE         SUNNY     88  77  70 W14       29.86F HX 100
JANESVILLE     PTSUNNY   91  79  66 W7        29.84S HX 107
$$

WIZ051-052-058>065-066-070>072-242300-
SOUTHEAST WISCONSIN

CITY           SKY/WX    TMP DP  RH WIND       PRES   REMARKS
MILWAUKEE      CLOUDY    92  76  59 S12       29.81S HX 104
WAUKESHA       NOT AVBL
MILWAUKEE/TIMM NOT AVBL
RACINE         CLOUDY    86  71  60 S10       29.85S HX  91
BURLINGTON     MOSUNNY   92  78  65 SW9G20    29.83S HX 107
KENOSHA        CLOUDY    92  79  65 SW12      29.85S HX 108
FOND DU LAC    SUNNY     90  75  61 W9G18     29.81S HX 100
SHEBOYGAN      CLOUDY    89  78  70 W15G21    29.80R HX 103
WEST BEND      MOSUNNY   90  77  66 W15G21    29.81S HX 102
JUNEAU         MOSUNNY   87  77  71 W8        29.84S HX  98
$$

LSZ147-162-242300-
LAKE SUPERIOR

STATION/POSITION TIME  TEMP    WIND        PRES    WAVE
                       AIR SEA DIR/SP/G            HT/PER
                 (UTC) (F)     (DEG/KT/KT) (MB)    (FT/S)
W MID LAKE BUOY  2050   67 58  240/ 16/ 17 1006.4F   2/ 3
DEVILS ISLAND    2100   69     240/ 19/ 21 1008.2R
PORT WING        1940   77     250/ 12/ 18 1009.5
SAXON HARBOR     2100   81     290/  9/ 15 1008.8
$$

LMZ867-665-643>646-242300-
LAKE MICHIGAN

STATION/POSITION TIME  TEMP    WIND        PRES    WAVE
                       AIR SEA DIR/SP/G            HT/PER
                 (UTC) (F)     (DEG/KT/KT) (MB)    (FT/S)
CHAMBERS ISLAND  2100   76     200/  5/ 15 1008.1R
S GREEN BAY BUOY 2100   77 75  190/  6/  6   N/A
N MID LAKE BUOY  2050   70 68  210/ 16/ 19 1007.5F   3/ 6
NORTHPORT PIER   2100   77     190/  1/  3 1008.1S
KEWAUNEE LAKESHO 2100   62     170/  8/ 12 1008.2F
SHEBOYGAN LAKESH 2100   70     170/ 20/ 21 1008.8F
PORT WASHINGTON  2100   69     140/  2/  4 1009.5
MILWAUKEE LAKESH 2110          230/ 14/ 20   N/A
S MID LAKE BUOY  2050   76 72  170/ 16/ 16 1009.1F   3/ 5
KENOSHA   LAKESH 2100   79     270/  4/ 30 1010.5R
$$

TC  - TEMPERATURE IN CELSIUS
VSB - VISIBILITY IN STATUTE MILES
WCI - WIND CHILL INDEX
HX  - HEAT INDEX




USA.gov is the U.S. government's official web portal to all federal, state and local government web resources and services.